Location: Bremen
(53.0793°N, 8.8017°E)
Time: 11:08:52
(UTC+01:00)

ISS - Visible Passes

Search period start: 28 November 2023 00:00
Search period end: 08 December 2023 00:00
Orbit: 416 x 418 km, 51.6° (Epoch: 28 November)

Date Brightness Start Highest point End Pass type
(mag) Time Alt. Az. Time Alt. Az. Time Alt. Az.
28 Nov -3.6 17:28:21 10° W 17:31:43 70° S 17:34:22 15° E visible
28 Nov -2.0 19:05:05 10° W 19:07:17 32° WSW 19:07:17 32° WSW visible
29 Nov -3.2 18:16:46 10° W 18:20:03 53° SSW 18:21:00 38° SE visible
29 Nov -0.2 19:53:53 10° W 19:53:54 10° W 19:53:54 10° W visible
30 Nov -3.4 17:28:25 10° W 17:31:45 62° S 17:34:45 12° ESE visible
30 Nov -1.7 19:05:18 10° W 19:07:40 25° SW 19:07:40 25° SW visible
01 Dec -2.3 18:16:48 10° W 18:19:53 34° SSW 18:21:29 21° SSE visible
02 Dec -2.7 17:28:19 10° W 17:31:32 44° SSW 17:34:44 10° SE visible
02 Dec -1.0 19:05:50 10° WSW 19:07:41 14° SW 19:08:20 13° SSW visible
03 Dec -1.2 18:16:53 10° W 18:19:24 20° SSW 18:21:54 10° SSE visible
04 Dec -1.6 17:28:08 10° W 17:31:01 27° SSW 17:33:54 10° SSE visible
05 Dec -0.2 18:18:18 10° SW 18:18:33 10° SW 18:18:49 10° SW visible
06 Dec -0.7 17:28:12 10° WSW 17:30:11 15° SW 17:32:09 10° S visible
